Location: ???????
(55.4362°N, 38.1183°E)
Time: 15:50:21
(UTC+00:00)

METEOR M2 - Visible Passes

Search period start: 28 November 2021 00:00
Search period end: 08 December 2021 00:00
Orbit: 819 x 827 km, 98.4° (Epoch: 28 November)

Date Brightness Start Highest point End Pass type
(mag) Time Alt. Az. Time Alt. Az. Time Alt. Az.
28 Nov ? 03:12:56 10° ENE 03:14:53 12° E 03:16:49 10° ESE visible
28 Nov ? 14:41:26 10° SE 14:46:22 38° ENE 14:51:20 10° N visible
28 Nov ? 16:21:18 10° S 16:26:30 47° W 16:31:43 10° NNW visible
29 Nov ? 04:31:04 10° NNE 04:36:12 43° E 04:41:17 10° S visible
29 Nov ? 14:22:01 10° ESE 14:26:37 30° ENE 14:31:13 10° N visible
29 Nov ? 16:01:07 10° S 16:06:29 65° WSW 16:11:52 10° NNW visible
29 Nov ? 17:45:13 10° WSW 17:47:44 13° W 17:50:16 10° NW visible
30 Nov ? 04:11:20 10° NNE 04:16:06 32° E 04:20:51 10° SSE visible
30 Nov ? 14:02:47 10° ESE 14:06:54 23° NE 14:11:03 10° N visible
30 Nov ? 15:41:07 10° SSE 15:46:30 88° WSW 15:51:56 10° NNW visible
30 Nov ? 17:23:48 10° SW 17:27:29 18° W 17:31:11 10° NW visible
01 Dec ? 03:51:42 10° NE 03:55:57 23° E 04:00:11 10° SE visible
01 Dec ? 13:43:43 10° E 13:47:15 18° NE 13:50:48 10° N visible
01 Dec ? 15:21:15 10° SSE 15:26:36 70° ENE 15:31:58 10° NNW visible
01 Dec ? 17:02:53 10° SW 17:07:17 25° W 17:11:42 10° NW visible
02 Dec ? 03:32:18 10° NE 03:35:45 17° E 03:39:10 10° SE visible
02 Dec ? 15:01:33 10° SE 15:06:44 52° ENE 15:11:58 10° N visible
02 Dec ? 16:42:17 10° SSW 16:47:09 34° W 16:52:03 10° NNW visible
03 Dec ? 03:13:24 10° ENE 03:15:28 12° E 03:17:30 10° ESE visible
03 Dec ? 14:41:59 10° SE 14:46:56 39° ENE 14:51:54 10° N visible
03 Dec ? 16:21:54 10° S 16:27:04 47° W 16:32:16 10° NNW visible
04 Dec ? 04:31:38 10° NNE 04:36:47 44° E 04:41:52 10° S visible
04 Dec ? 14:22:34 10° ESE 14:27:10 30° ENE 14:31:47 10° N visible
04 Dec ? 16:01:42 10° S 16:07:03 64° WSW 16:12:25 10° NNW visible
04 Dec ? 17:45:54 10° WSW 17:48:20 13° W 17:50:45 10° NW visible
05 Dec ? 04:11:52 10° NNE 04:16:41 32° E 04:21:27 10° SSE visible
05 Dec ? 14:03:19 10° ESE 14:07:28 23° NE 14:11:37 10° N visible
05 Dec ? 15:41:41 10° SSE 15:47:05 86° WSW 15:52:31 10° NNW visible
05 Dec ? 17:24:26 10° SW 17:28:04 18° W 17:31:43 10° NW visible
06 Dec ? 03:52:14 10° NE 03:56:32 24° E 04:00:47 10° SE visible
06 Dec ? 13:44:15 10° E 13:47:48 18° NE 13:51:23 10° N visible
06 Dec ? 15:21:49 10° SSE 15:27:10 71° ENE 15:32:33 10° NNW visible
06 Dec ? 17:03:30 10° SW 17:07:52 25° W 17:12:15 10° NW visible
07 Dec ? 03:32:49 10° NE 03:36:19 17° E 03:39:48 10° SE visible
07 Dec ? 15:02:06 10° SE 15:07:19 53° ENE 15:12:32 10° N visible
07 Dec ? 16:42:53 10° SSW 16:47:43 33° W 16:52:36 10° NNW visible
